When you browse on this site, cookies collect data to enhance your experience and personalize the content and advertising you see.
Visit our Privacy Policy to learn more. By continuing to use the site, you agree to this use of cookies and data.
  • en Suisse
  • Liste des pays
  • À 7 jours
  • Température de l'eau
  • Carte météo
  • Widgets météo
  • user-avatar
    Se connecter

    Météo par heure à Kalgoorlie

    Ce jour, 20 Février, Jeudi

    Heure Température Précipitation Vent Pression Humidité
    00:00 +23°C° 0 mm 5 m/s 729 mmHg 42%
    01:00 +22°C° 0 mm 6 m/s 729 mmHg 45%
    02:00 +21°C° 0 mm 6 m/s 729 mmHg 49%
    03:00 +20°C° 0 mm 6 m/s 729 mmHg 53%
    04:00 +19°C° 0 mm 6 m/s 729 mmHg 58%
    05:00 +19°C° 0 mm 6 m/s 730 mmHg 62%
    06:00 +19°C° 0 mm 6 m/s 730 mmHg 59%
    07:00 +20°C° 0 mm 6 m/s 730 mmHg 57%
    08:00 +21°C° 0 mm 6 m/s 731 mmHg 54%
    09:00 +23°C° 0 mm 6 m/s 731 mmHg 46%
    10:00 +26°C° 0 mm 6 m/s 731 mmHg 38%
    11:00 +28°C° 0 mm 7 m/s 731 mmHg 30%
    12:00 +29°C° 0 mm 6 m/s 731 mmHg 29%
    13:00 +29°C° 0 mm 6 m/s 731 mmHg 28%
    14:00 +29°C° 0 mm 5 m/s 730 mmHg 27%
    15:00 +29°C° 0 mm 5 m/s 730 mmHg 29%
    16:00 +29°C° 0 mm 5 m/s 730 mmHg 30%
    17:00 +28°C° 0 mm 5 m/s 731 mmHg 31%
    18:00 +27°C° 0 mm 5 m/s 731 mmHg 35%
    19:00 +26°C° 0 mm 5 m/s 731 mmHg 39%
    20:00 +26°C° 0 mm 4 m/s 731 mmHg 44%
    21:00 +25°C° 0 mm 4 m/s 731 mmHg 46%
    22:00 +23°C° 0 mm 4 m/s 731 mmHg 48%
    23:00 +23°C° 0 mm 4 m/s 731 mmHg 49%

    Demain, 21 Février, Vendredi

    Heure Température Précipitation Vent Pression Humidité
    00:00 +22°C° 0 mm 5 m/s 731 mmHg 52%
    01:00 +21°C° 0 mm 7 m/s 731 mmHg 55%
    02:00 +20°C° 0 mm 8 m/s 731 mmHg 57%
    03:00 +18°C° 0 mm 8 m/s 731 mmHg 60%
    04:00 +18°C° 0 mm 7 m/s 731 mmHg 62%
    05:00 +18°C° 0 mm 7 m/s 732 mmHg 65%
    06:00 +18°C° 0 mm 7 m/s 732 mmHg 64%
    07:00 +18°C° 0 mm 7 m/s 732 mmHg 62%
    08:00 +18°C° 0 mm 7 m/s 732 mmHg 61%
    09:00 +21°C° 0 mm 6 m/s 732 mmHg 56%
    10:00 +22°C° 0 mm 6 m/s 732 mmHg 50%
    11:00 +23°C° 0 mm 6 m/s 732 mmHg 44%
    12:00 +26°C° 0 mm 6 m/s 732 mmHg 38%
    13:00 +28°C° 0 mm 6 m/s 731 mmHg 32%
    14:00 +30°C° 0 mm 6 m/s 730 mmHg 26%
    21:00 +30°C° 0 mm 4 m/s 728 mmHg 32%
    22:00 +27°C° 0 mm 6 m/s 731 mmHg 30%
    23:00 +26°C° 0 mm 6 m/s 731 mmHg 30%

    Après-demain, 22 Février, Samedi

    Heure Température Précipitation Vent Pression Humidité
    00:00 +24°C° 0 mm 6 m/s 730 mmHg 36%
    01:00 +23°C° 0 mm 7 m/s 730 mmHg 41%
    02:00 +22°C° 0 mm 7 m/s 730 mmHg 47%
    03:00 +21°C° 0 mm 7 m/s 730 mmHg 49%
    04:00 +21°C° 0 mm 6 m/s 730 mmHg 52%
    05:00 +21°C° 0 mm 6 m/s 730 mmHg 54%
    06:00 +21°C° 0 mm 6 m/s 730 mmHg 51%
    07:00 +22°C° 0 mm 6 m/s 731 mmHg 48%
    08:00 +23°C° 0 mm 6 m/s 731 mmHg 44%
    09:00 +24°C° 0 mm 6 m/s 731 mmHg 42%
    10:00 +26°C° 0 mm 5 m/s 731 mmHg 41%
    11:00 +27°C° 0 mm 4 m/s 731 mmHg 39%
    12:00 +27°C° 0 mm 4 m/s 731 mmHg 38%
    13:00 +28°C° 0 mm 4 m/s 730 mmHg 36%
    14:00 +28°C° 0 mm 4 m/s 730 mmHg 35%
    15:00 +27°C° 0 mm 4 m/s 730 mmHg 41%
    16:00 +26°C° 0 mm 4 m/s 729 mmHg 47%
    17:00 +25°C° 0 mm 4 m/s 729 mmHg 53%
    18:00 +25°C° 0 mm 3 m/s 729 mmHg 55%
    19:00 +24°C° 0 mm 3 m/s 729 mmHg 56%
    20:00 +24°C° 0 mm 2 m/s 730 mmHg 57%
    21:00 +24°C° 0 mm 2 m/s 729 mmHg 57%
    22:00 +24°C° 0 mm 2 m/s 729 mmHg 56%
    23:00 +24°C° 0 mm 3 m/s 729 mmHg 55%

    23 Février, Dimanche

    Heure Température Précipitation Vent Pression Humidité
    00:00 +22°C° 0 mm 3 m/s 729 mmHg 57%
    01:00 +22°C° 0 mm 3 m/s 728 mmHg 59%
    02:00 +22°C° 0 mm 3 m/s 728 mmHg 61%
    03:00 +22°C° 0 mm 3 m/s 728 mmHg 63%
    04:00 +21°C° 0 mm 3 m/s 728 mmHg 65%
    05:00 +21°C° 0 mm 3 m/s 729 mmHg 66%
    06:00 +22°C° 0 mm 3 m/s 729 mmHg 62%
    07:00 +23°C° 0 mm 4 m/s 729 mmHg 58%
    08:00 +23°C° 0 mm 4 m/s 730 mmHg 54%
    09:00 +26°C° 0 mm 4 m/s 729 mmHg 47%
    10:00 +28°C° 0 mm 3 m/s 729 mmHg 41%
    11:00 +30°C° 0 mm 3 m/s 729 mmHg 35%
    12:00 +31°C° 0 mm 2 m/s 728 mmHg 33%
    13:00 +32°C° 0 mm 1 m/s 728 mmHg 31%
    14:00 +34°C° 0 mm 1 m/s 727 mmHg 29%
    15:00 +34°C° 0 mm 1 m/s 727 mmHg 29%
    16:00 +34°C° 0 mm 1 m/s 727 mmHg 28%
    17:00 +35°C° 0 mm 1 m/s 727 mmHg 28%
    18:00 +35°C° 0.1 mm 2 m/s 727 mmHg 30%
    19:00 +34°C° 0.1 mm 2 m/s 728 mmHg 32%
    20:00 +33°C° 0.1 mm 3 m/s 728 mmHg 33%
    21:00 +30°C° 0.1 mm 5 m/s 729 mmHg 38%
    22:00 +28°C° 0.1 mm 8 m/s 729 mmHg 43%
    23:00 +27°C° 0.1 mm 10 m/s 729 mmHg 48%

    24 Février, Lundi

    Heure Température Précipitation Vent Pression Humidité
    00:00 +26°C° 0 mm 9 m/s 729 mmHg 51%
    01:00 +24°C° 0 mm 8 m/s 729 mmHg 53%
    02:00 +23°C° 0 mm 7 m/s 729 mmHg 56%
    03:00 +23°C° 0 mm 6 m/s 729 mmHg 57%
    04:00 +22°C° 0 mm 6 m/s 729 mmHg 57%
    05:00 +22°C° 0 mm 5 m/s 729 mmHg 58%
    06:00 +23°C° 0.1 mm 6 m/s 730 mmHg 55%
    07:00 +23°C° 0.1 mm 6 m/s 730 mmHg 53%
    08:00 +24°C° 0.1 mm 6 m/s 731 mmHg 51%
    09:00 +27°C° 0.1 mm 5 m/s 731 mmHg 45%
    10:00 +29°C° 0.1 mm 4 m/s 731 mmHg 39%
    11:00 +31°C° 0.1 mm 3 m/s 731 mmHg 34%
    12:00 +33°C° 0 mm 3 m/s 730 mmHg 31%
    13:00 +34°C° 0 mm 2 m/s 730 mmHg 29%
    14:00 +35°C° 0 mm 2 m/s 730 mmHg 27%
    15:00 +35°C° 0 mm 3 m/s 729 mmHg 28%
    16:00 +35°C° 0 mm 5 m/s 729 mmHg 29%
    17:00 +34°C° 0 mm 6 m/s 729 mmHg 30%
    18:00 +33°C° 0 mm 5 m/s 730 mmHg 33%
    19:00 +32°C° 0 mm 5 m/s 730 mmHg 37%
    20:00 +30°C° 0 mm 5 m/s 731 mmHg 40%
    21:00 +29°C° 0.1 mm 5 m/s 731 mmHg 46%
    22:00 +28°C° 0.1 mm 6 m/s 731 mmHg 51%
    23:00 +27°C° 0.1 mm 6 m/s 731 mmHg 57%

    25 Février, Mardi

    Heure Température Précipitation Vent Pression Humidité
    00:00 +26°C° 0.1 mm 7 m/s 731 mmHg 58%
    01:00 +24°C° 0.1 mm 7 m/s 731 mmHg 60%
    02:00 +23°C° 0.1 mm 8 m/s 731 mmHg 62%
    03:00 +23°C° 0.1 mm 7 m/s 731 mmHg 63%
    04:00 +23°C° 0.1 mm 7 m/s 732 mmHg 64%
    05:00 +23°C° 0.1 mm 6 m/s 732 mmHg 65%
    06:00 +23°C° 0 mm 7 m/s 732 mmHg 63%
    07:00 +23°C° 0 mm 7 m/s 732 mmHg 61%
    08:00 +24°C° 0 mm 7 m/s 732 mmHg 59%
    09:00 +24°C° 0.1 mm 8 m/s 732 mmHg 56%
    10:00 +26°C° 0.1 mm 8 m/s 732 mmHg 52%
    11:00 +27°C° 0.1 mm 8 m/s 732 mmHg 49%
    12:00 +27°C° 0 mm 8 m/s 732 mmHg 49%
    13:00 +27°C° 0 mm 8 m/s 731 mmHg 49%
    14:00 +27°C° 0 mm 8 m/s 731 mmHg 49%
    15:00 +27°C° 0 mm 8 m/s 731 mmHg 52%
    16:00 +27°C° 0 mm 7 m/s 731 mmHg 55%
    17:00 +27°C° 0 mm 7 m/s 731 mmHg 57%
    18:00 +26°C° 0 mm 7 m/s 731 mmHg 60%
    19:00 +26°C° 0 mm 7 m/s 732 mmHg 62%
    20:00 +24°C° 0 mm 7 m/s 732 mmHg 64%
    21:00 +24°C° 0 mm 7 m/s 732 mmHg 64%
    22:00 +23°C° 0 mm 7 m/s 732 mmHg 65%
    23:00 +22°C° 0 mm 6 m/s 732 mmHg 65%
    Voir plus